SCP
3 4 5 5 4 3 3 2 2 3 3 4 4 5 4 4 3 2 4 5 5 4 3 2 2 2 2 1 1 1 1 1 1 1 2 2 1 1 1 1 1 1 1
4 4 5 4 4 3 3 2 2 2 2 3 4 4 4 4 3 2 3 4 4 3 2 2 2 2 2 2 2 2 2 1 1 1 2 2 2 1 1 1 1 1 1
4 4 5 4 4 3 3 3 3 3 2 2 3 3 4 4 3 3 3 3 3 3 2 2 2 2 2 2 2 2 2 2 2 2 2 2 2 1 1 1 1 1 1
4 4 4 4 4 4 3 3 3 3 3 2 2 3 3 3 3 3 3 3 2 2 2 1 1 1 2 2 1 2 2 2 2 2 2 2 2 1 1 1 1 1 1
4 4 4 4 4 3 3 3 3 3 3 2 3 3 3 3 4 4 3 3 2 2 2 1 1 1 1 1 1 2 2 2 2 2 2 2 2 1 1 1 1 1 1
4 4 4 3 3 3 3 3 2 2 2 2 3 3 4 4 4 4 3 2 2 2 2 1 1 1 1 1 1 2 2 2 2 2 2 2 2 1 1 1 1 0 0
4 3 3 3 3 3 3 3 2 3 3 3 3 4 6 5 4 4 3 2 2 3 2 2 2 1 1 1 1 2 2 2 2 2 2 2 2 2 2 1 1 1 1
3 3 3 3 3 3 3 3 2 3 4 5 5 6 8 7 5 4 3 2 2 2 2 2 2 1 1 1 1 1 2 2 2 1 1 2 2 3 3 2 1 1 2
3 3 4 4 4 3 3 3 3 4 5 5 6 7 8 8 7 6 4 3 2 2 2 2 2 1 1 1 1 1 1 1 1 0 1 1 2 4 4 3 2 2 2
3 3 4 5 5 4 3 4 4 4 4 5 6 8 8 8 7 5 4 2 2 1 1 1 1 1 1 0 0 0 0 0 0 0 0 1 2 4 5 4 3 4 3
2 2 3 4 4 4 4 4 4 4 4 5 6 8 8 7 5 4 3 2 2 1 1 1 1 0 0 0 0 0 0 0 0 0 0 1 2 4 5 5 4 4 3
1 1 2 2 3 3 4 4 4 4 4 5 6 6 6 5 4 3 2 2 2 1 1 1 0 0 0 0 0 0 0 0 0 0 0 0 1 2 4 4 4 3 2
1 1 1 2 2 3 3 3 4 4 4 4 4 4 3 3 2 2 2 2 2 1 1 0 0 0 0 0 0 0 0 0 0 0 0 0 1 2 2 3 2 2 1
1 1 1 2 2 2 2 2 3 3 3 2 2 2 1 1 1 2 1 1 1 1 0 0 0 0 0 0 0 0 0 0 0 0 0 0 0 1 1 1 1 1 1
1 1 2 2 2 1 1 1 1 1 1 1 1 1 1 1 1 1 1 1 0 0 0 0 0 0 0 0 0 0 0 0 0 0 0 0 0 0 0 1 0 0 0
1 1 1 1 1 1 0 0 0 1 1 1 1 1 0 0 0 0 0 0 0 0 0 0 0 0 0 0 0 0 0 0 0 0 0 0 0 0 0 0 0 0 0
1 1 1 1 0 0 0 0 0 0 1 1 1 0 0 0 0 0 0 0 0 0 0 0 0 0 0 0 0 0 0 0 0 0 0 0 0 0 0 0 0 0 0
1 1 1 0 0 0 0 0 1 1 1 1 0 0 0 0 0 0 0 0 0 0 0 0 0 0 0 0 0 0 0 0 0 0 0 0 0 0 0 0 0 0 0
1 1 0 0 0 0 0 0 0 1 1 1 0 0 0 0 0 0 0 0 0 0 0 0 0 0 0 0 0 0 0 0 0 0 0 0 0 0 0 0 0 0 0
1 1 0 0 0 0 0 0 0 0 0 0 0 0 0 0 0 0 0 0 0 0 0 0 0 0 0 0 0 0 0 0 0 0 0 0 0 0 0 0 0 0 0
0 0 0 0 0 0 0 0 0 0 0 0 0 0 0 0 0 0 0 0 0 0 0 0 0 0 0 0 0 0 0 0 0 0 0 0 0 0 0 0 0 0 0
0 0 0 0 0 0 0 0 0 0 0 0 0 0 0 0 0 0 0 0 0 0 0 0 0 0 0 0 0 0 0 0 0 0 0 0 0 0 0 0 0 0 0
0 0 0 0 0 0 0 0 0 0 0 0 0 0 0 0 0 0 0 0 0 0 0 0 0 0 0 0 0 0 0 0 0 0 0 0 0 0 0 0 0 0 0
0 0 0 0 0 0 0 0 0 0 0 0 0 0 0 0 0 0 0 0 0 0 0 0 0 0 0 0 0 0 0 0 0 0 0 0 0 0 0 0 0 0 0
0 0 0 0 0 0 0 0 0 0 0 0 0 0 0 0 0 0 0 0 0 0 0 0 0 0 0 0 0 0 0 0 0 0 0 0 0 0 0 0 0 0 0
1 0 0 0 0 0 0 0 0 0 0 0 0 0 0 0 0 0 0 0 0 0 0 0 0 0 0 0 0 0 0 0 0 0 0 0 0 0 0 0 0 1 0
Wind_Speed
7 7 7 6 5 5 5 4 4 4 3 2 2 2 2 2 1 2 2 1 2 2 2 3 2 3 2 3 4 4 3 2 2 3 2 1 1 0 0 1 1 1 1
8 7 7 7 6 5 5 4 4 3 2 2 1 1 1 1 1 1 2 2 2 2 2 3 2 2 2 2 3 3 4 2 2 3 3 2 2 1 1 0 0 1 1
10 9 8 7 6 6 5 4 4 4 3 3 2 2 2 2 1 1 1 2 2 2 3 3 3 3 3 2 3 3 3 3 3 2 3 3 2 1 0 1 1 1 1
9 9 8 7 6 5 4 4 4 3 3 2 2 2 1 1 1 1 2 2 2 2 2 3 3 3 3 3 4 3 4 4 3 2 2 3 3 2 1 1 1 1 1
10 10 8 8 6 5 4 4 4 4 3 2 2 2 1 1 1 1 2 1 2 2 3 3 3 3 3 3 4 3 4 3 4 3 3 3 2 4 3 2 2 1 1
10 9 8 7 6 5 5 5 5 4 3 3 2 2 2 1 1 1 1 0 0 1 3 3 3 3 3 3 3 3 3 3 4 4 3 3 3 3 2 2 2 2 2
9 9 9 8 7 6 5 5 5 4 4 3 3 2 2 2 2 1 1 1 1 2 3 3 3 3 3 3 3 3 3 3 4 4 4 3 3 3 3 2 2 3 2
8 8 8 8 8 7 6 5 5 4 4 3 3 2 1 1 0 0 1 1 1 2 3 3 3 3 4 4 3 3 2 2 3 4 4 4 3 3 3 2 3 2 2
8 8 7 7 7 7 6 5 5 4 3 3 3 2 2 0 0 0 1 1 2 2 3 3 3 3 3 4 4 3 3 3 3 3 3 3 2 2 2 3 3 3 3
8 8 7 7 6 5 5 4 4 4 3 3 3 2 2 1 1 1 2 2 2 3 3 3 3 3 3 4 4 3 3 3 3 3 3 3 2 1 2 3 3 3 3
8 7 6 7 6 5 5 4 4 4 3 2 2 2 2 2 2 1 1 2 2 2 2 3 3 3 3 3 3 4 3 4 4 3 3 3 3 2 1 2 2 2 2
8 7 7 7 6 5 4 4 3 3 3 2 2 2 2 3 2 2 2 2 2 2 2 3 3 3 3 3 4 4 4 4 4 4 3 2 2 2 2 1 2 1 2
8 8 7 6 6 5 4 4 3 2 2 2 3 3 3 2 2 2 1 2 2 2 2 3 3 4 4 3 3 3 4 4 4 4 4 3 2 2 2 2 1 1 2
8 7 7 6 6 5 4 4 3 3 3 3 3 3 3 2 2 2 1 1 1 2 2 3 3 3 3 3 3 3 4 4 4 4 4 4 3 2 2 1 1 2 2
8 8 7 7 6 6 5 4 4 3 3 3 3 3 3 2 2 2 2 2 1 2 2 3 3 4 3 4 5 4 4 3 3 3 3 3 3 4 3 2 2 2 2
8 8 7 8 7 6 6 4 4 3 3 3 3 3 3 2 2 2 1 1 2 2 2 3 3 4 4 5 5 6 4 4 3 3 3 1 0 1 0 2 4 4 3
8 8 8 7 7 6 6 5 4 4 3 3 3 3 3 2 2 1 1 1 1 2 2 3 3 4 4 3 4 5 5 4 3 3 3 2 2 2 1 1 3 3 3
8 8 8 7 7 6 6 5 4 4 3 3 3 3 3 2 2 1 1 1 1 1 2 2 3 3 3 3 4 6 5 3 2 3 3 3 3 3 4 3 2 1 1
8 8 7 7 7 7 6 5 5 4 4 3 3 3 3 2 1 1 1 1 1 2 2 2 3 3 2 2 4 7 4 2 2 3 3 3 2 3 5 4 3 2 1
8 8 8 7 7 7 6 6 5 4 4 3 3 2 2 2 1 0 0 1 1 2 2 2 2 3 3 2 3 6 4 3 3 2 1 1 2 3 4 5 3 2 1
8 8 8 7 7 7 6 6 5 4 3 3 3 2 1 2 1 1 1 1 1 2 2 3 2 2 2 1 2 4 4 4 4 3 2 2 1 3 4 6 5 3 3
9 8 8 7 7 7 7 6 4 4 3 4 3 2 2 1 1 1 1 1 1 2 2 2 2 1 1 1 0 2 4 6 5 4 3 2 2 4 5 5 3 3 5
9 8 8 8 7 7 6 5 5 4 4 4 3 3 2 2 1 2 2 2 2 2 2 2 2 1 1 1 3 4 5 5 5 4 4 5 6 6 6 6 5 5 4
9 8 8 8 7 7 6 5 5 5 4 4 3 3 3 3 2 2 2 2 2 2 3 3 3 3 2 2 2 2 2 4 5 4 3 7 8 7 4 3 5 4 2
8 8 8 8 8 7 6 5 5 5 4 4 3 3 3 2 2 2 2 3 2 3 4 4 4 4 4 4 6 6 6 6 6 6 5 4 3 3 2 2 2 2 3
8 8 8 8 8 7 7 6 6 5 5 4 4 3 3 2 3 2 3 3 4 3 5 6 7 5 4 5 6 6 7 7 6 6 5 4 4 3 3 3 2 3 3
Wind_Direction
164 155 151 148 146 143 145 148 144 148 165 155 156 152 148 140 114 88 62 37 14 11 352 345 347 319 329 327 320 310 296 293 311 297 289 256 231 171 249 305 324 343 1
168 164 162 157 152 147 147 148 152 155 172 151 158 147 133 135 93 72 69 39 28 5 6 357 331 338 321 322 323 323 313 309 299 302 298 266 213 179 348 317 310 328 340
180 175 173 168 160 156 156 154 151 154 157 159 162 156 160 173 160 138 89 48 32 24 2 349 342 337 317 328 319 315 314 306 291 294 300 296 303 326 215 359 357 354 3
186 183 177 169 162 156 153 150 146 143 141 161 164 170 187 166 82 33 55 49 40 19 7 350 344 333 329 325 309 342 308 297 298 292 285 296 309 282 290 278 1 357 356
188 187 178 169 161 154 154 147 142 140 140 146 158 182 175 132 111 92 86 28 59 25 17 3 351 337 327 333 324 323 313 305 304 304 299 291 269 263 267 279 299 307 348
187 181 168 160 158 160 157 151 149 142 148 161 165 166 151 153 141 129 114 269 72 43 30 6 356 336 335 328 315 303 300 307 306 298 291 288 284 278 280 273 267 293 317
176 173 169 167 164 165 162 162 159 154 154 158 167 170 168 182 186 215 165 302 2 28 19 359 343 335 330 320 315 301 315 312 306 295 292 284 278 276 273 264 261 275 272
168 171 172 171 167 167 166 168 167 163 157 151 152 151 176 210 117 4 313 343 356 15 3 341 338 333 332 330 325 311 321 320 315 310 307 287 277 271 259 243 239 251 265
158 160 161 162 163 165 164 166 162 153 151 147 153 155 160 157 54 211 271 26 22 12 3 346 340 334 334 334 324 339 338 329 318 318 307 290 287 271 264 243 235 247 257
148 147 150 151 153 154 153 154 151 141 146 157 171 154 144 133 108 47 46 35 22 18 359 352 348 345 341 340 334 336 353 330 328 325 327 309 290 272 258 252 249 252 259
146 145 147 146 143 142 144 150 153 153 154 158 152 138 133 115 103 87 66 53 34 19 359 353 353 353 348 345 343 345 344 335 331 325 319 317 306 281 259 257 263 259 259
146 145 144 140 140 144 145 146 152 153 148 134 131 126 119 114 112 92 66 52 36 16 17 1 5 2 3 360 354 348 349 339 332 333 331 328 317 301 295 282 283 289 275
148 148 146 144 147 148 147 145 151 147 139 131 145 136 128 117 106 90 60 42 35 20 15 16 11 2 355 358 359 351 348 346 344 340 340 338 337 325 339 308 281 258 248
153 155 153 151 152 152 152 153 151 146 148 147 143 132 125 113 107 94 65 41 31 20 14 6 5 0 352 355 356 347 346 346 345 342 339 339 342 348 334 314 294 280 254
161 161 159 155 153 153 156 160 153 145 147 146 131 124 121 116 109 88 71 57 37 21 14 5 3 4 3 9 355 338 341 341 344 343 343 357 3 2 340 330 321 292 271
167 164 162 158 160 161 163 162 161 156 155 152 138 122 115 115 108 98 74 55 35 18 8 6 5 3 17 24 353 327 323 327 333 334 338 348 44 54 318 328 328 327 309
168 169 167 165 166 167 167 166 164 158 157 155 147 138 132 121 104 92 63 40 30 13 2 0 3 6 13 4 339 324 306 314 327 328 325 333 22 317 349 219 236 264 300
170 169 170 168 169 169 167 164 160 160 163 155 151 149 150 138 123 93 54 18 357 348 337 342 349 350 3 359 328 313 288 304 313 314 322 331 340 10 339 299 282 268 254
168 167 168 166 166 167 167 165 165 167 166 159 157 159 159 148 150 129 50 349 326 315 308 328 336 336 347 359 328 312 295 311 317 319 328 329 336 18 331 296 292 290 231
161 162 163 163 162 164 166 167 168 170 170 162 168 167 166 165 163 140 318 314 307 303 301 338 328 322 331 6 336 318 303 331 325 322 311 93 324 336 315 286 286 291 326
157 161 162 160 158 161 164 169 171 171 166 161 162 153 159 174 177 183 231 274 290 324 313 320 314 310 317 319 328 321 310 323 321 330 331 43 114 292 291 285 285 291 298
156 160 159 154 155 161 166 170 171 168 166 167 168 164 172 202 166 185 217 248 270 264 267 284 296 280 236 303 346 273 282 301 305 309 320 10 354 300 286 276 285 274 265
156 160 159 154 157 164 172 174 167 169 171 170 171 174 185 201 212 221 219 233 248 275 293 295 311 327 341 182 204 233 251 262 275 304 329 306 285 279 256 228 236 245 241
157 161 162 159 160 165 172 177 170 171 175 175 179 187 198 204 209 240 245 257 277 296 310 316 323 330 322 325 335 289 249 235 245 273 266 240 247 246 257 238 216 227 248
159 163 166 163 163 165 167 173 172 174 180 185 190 200 207 212 225 232 272 286 306 326 306 313 313 314 318 3 0 324 317 325 338 323 289 278 269 253 238 236 235 233 218
160 163 165 165 166 168 169 173 176 179 182 190 200 208 213 215 231 230 221 213 242 234 242 262 283 297 294 303 305 298 291 290 297 292 280 286 288 295 299 289 258 237 242